Meteo Giornale » Osservazioni meteo Italia » Genova-Sestri

ore: 19:20 - Osservazioni Meteo Genova-Sestri
Lat. 44° 25' N Lon. 8° 51' E Alt. 2 metri s.l.m.

sereno Europe/Rome

19 °C

Sereno

Temp. 24 Ore

15 °C

20 °C

Nord

5.5 Km/h

Dew point 15 °C

Umidità 77 %

Visibilità  10 Km

Il sole sorge alle ore 06:23

Il sole tramonta alle ore 20:21

Data e Ora Cielo e Fenomeni T °C DP °C Um. % Pres. hPa Vis. km Vento km/h
Oggi h: 19:20 sereno Sereno 19 15 77 1018 10 N 5.5
Oggi h: 18:50 sereno Sereno 19 14 72 1018 10 N 5.5
Oggi h: 18:20 sereno Sereno 19 13 68 1018 10 S/SO 7.4
Oggi h: 17:50 sereno Sereno 20 13 64 1018 10 SO 7.4
Oggi h: 17:20 sereno Sereno 20 14 68 1018 10 O/SO 9.3
Oggi h: 16:50 sereno Sereno 20 14 68 1018 10 O/SO 11.1
Oggi h: 16:20 sereno Sereno 20 14 68 1018 10 O 13
Oggi h: 15:50 sereno Sereno 20 15 72 1019 10 O/SO 9.3
Oggi h: 15:20 sereno Sereno 20 15 72 1019 10 N 5.5
Oggi h: 14:50 sereno Sereno 19 15 77 1019 10 S/SO 7.4
Oggi h: 14:20 nuvoloso Nuvoloso 20 15 72 1019 10 N 5.5
Oggi h: 13:50 nuvoloso Nuvoloso 19 15 77 1020 10 N 5.5
Oggi h: 13:20 nuvoloso Nuvoloso 18 15 82 1020 10 N 5.5
Oggi h: 12:50 nuvoloso Nuvoloso 18 15 82 1020 10 S/SE 7.4
Oggi h: 12:20 nuvoloso Nuvoloso 18 15 82 1020 10 SE 9.3
Oggi h: 11:50 poco_nuvoloso Poco Nuvoloso 18 15 82 1020 10 S/SE 11.1
Oggi h: 11:20 poco_nuvoloso Poco Nuvoloso 18 15 82 1020 10 S/SE 9.3
Oggi h: 10:50 poco_nuvoloso Poco Nuvoloso 18 15 82 1020 10 N 5.5
Oggi h: 10:20 poco_nuvoloso Poco Nuvoloso 19 15 77 1020 10 N 3.7
Oggi h: 09:50 nuvoloso Nuvoloso 18 14 77 1019 10 N 3.7
Oggi h: 09:20 nuvoloso Nuvoloso 18 14 77 1019 10 N 1.8
Oggi h: 08:50 molto_nuvoloso Molto Nuvoloso 18 13 72 1019 10 N 3.7
Oggi h: 08:20 nuvoloso Nuvoloso 17 13 77 1018 10 N 5.5
Oggi h: 07:50 nuvoloso Nuvoloso 16 13 82 1018 10 N/NE 7.4
Oggi h: 07:20 nuvoloso Nuvoloso 16 13 82 1018 10 N 5.5
Oggi h: 06:50 nuvoloso Nuvoloso 15 13 87 1017 10 N 7.4
Oggi h: 06:20 poco_nuvoloso Poco Nuvoloso 15 13 87 1017 10 N 7.4
Oggi h: 05:50 poco_nuvoloso Poco Nuvoloso 16 13 82 1017 10 N 5.5
Oggi h: 05:20 poco_nuvoloso Poco Nuvoloso 16 14 87 1017 10 N 5.5
Oggi h: 04:50 poco_nuvoloso Poco Nuvoloso 17 14 82 1017 10 N 5.5
Oggi h: 04:20 nuvoloso Nuvoloso 17 15 88 1017 10 N 3.7
Oggi h: 03:50 molto_nuvoloso Molto Nuvoloso 17 15 88 1018 10 N 3.7
Oggi h: 03:20 molto_nuvoloso Molto Nuvoloso 17 15 88 1018 10 N 3.7
Oggi h: 02:50 molto_nuvoloso Molto Nuvoloso 16 15 93 1018 10 N 5.5
Oggi h: 02:20 molto_nuvoloso Molto Nuvoloso 17 16 93 1018 10 E/SE 11.1
Oggi h: 01:50 molto_nuvoloso Molto Nuvoloso 17 15 88 1018 10 E/SE 9.3
Oggi h: 01:20 molto_nuvoloso Molto Nuvoloso 17 16 93 1018 10 N 5.5
Oggi h: 00:50 molto_nuvoloso Molto Nuvoloso 17 16 93 1018 10 N 1.8
Oggi h: 00:20 molto_nuvoloso Molto Nuvoloso 17 16 93 1018 10 N 3.7
Ieri h: 23:50 molto_nuvoloso Molto Nuvoloso 17 16 93 1018 10 N 5.5
Ieri h: 23:20 molto_nuvoloso Molto Nuvoloso 17 16 93 1018 10 N 3.7
Ieri h: 22:50 molto_nuvoloso Molto Nuvoloso 17 16 93 1018 10 N 3.7
Ieri h: 22:20 molto_nuvoloso Molto Nuvoloso 17 16 93 1018 10 N 5.5
Ieri h: 21:50 molto_nuvoloso Molto Nuvoloso 17 16 93 1018 10 S/SE 7.4
Ieri h: 21:20 molto_nuvoloso Molto Nuvoloso 17 16 93 1018 10 N 5.5
Ieri h: 20:50 nuvoloso Nuvoloso 17 16 93 1018 10 SE 7.4
Ieri h: 20:20 nuvoloso Nuvoloso 17 16 93 1018 10 SE 7.4
Ieri h: 19:50 nuvoloso Nuvoloso 17 16 93 1017 10 SE 7.4